Weather History for Jackson, KY

Change the Weather History Date:

Saturday, November 3, 2012

  Actual Average Record
Temperature  
Mean Temperature 41 °F 53 °F  
Max Temperature 48 °F 63 °F 81 °F (2003)
Min Temperature 34 °F 43 °F 23 °F (1991)
Degree Days  
Heating Degree Days 24 12  
Month to date heating degree days 60 36  
Since 1 July heating degree days 426 333  
Cooling Degree Days 0 0  
Month to date cooling degree days 0 0  
Year to date cooling degree days 1318 1150  
Moisture  
Dew Point 33 °F    
Average Humidity 77    
Maximum Humidity 100    
Minimum Humidity 53    
Precipitation  
Precipitation 0.14 in 0.13 in 1.47 in (1998)
Month to date precipitation 0.14 0.38  
Year to date precipitation 44.90 40.58  
Snow  
Snow 0.00 in 0.00 in - ()
Month to date snowfall 0.0 0.0  
Since 1 July snowfall 1.1 0.1  
Since 1 September snowfall 1.1 0.1  
Snow Depth 0.00 in    
Sea Level Pressure  
Sea Level Pressure 30.09 in    
Wind  
Wind Speed 1 mph (ESE)    
Max Wind Speed 9 mph    
Max Gust Speed 16 mph    
Visibility 10 miles    
Events Rain , Thunderstorm    
T = Trace of Precipitation, MM = Missing Value Source: NWS Daily Summary

Daily Weather History Graph

Daily Weather History Graph

Search for Another Location

Airport:

Trip Planner

Search our weather history database for the weather conditions in past years. The results will help you decide how hot, cold, wet, or windy it might be!

Date:

Astronomy

Nov. 03, 2012 Rise Set
Actual Time 8:00 AM EDT 6:32 PM EDT
Civil Twilight 7:33 AM EDT 6:59 PM EDT
Nautical Twilight 7:02 AM EDT 7:30 PM EDT
Astronomical Twilight 6:31 AM EDT 8:01 PM EDT
Moon 10:14 PM EDT (11/3) 12:02 PM EDT (11/3)
Length of Visible Light 11h 25m
Length of Day
10h 31m
Waning Gibbous, 80% of the Moon is Illuminated
Nov 3
Waning Gibbous
Nov 6
Last Quarter
Nov 13
New
Nov 20
First Quarter
Nov 28
Full

Hourly Weather History & Observations

Time (EDT) Temp. Windchill Dew Point Humidity Pressure Visibility Wind Dir Wind Speed Gust Speed Precip Events Conditions
12:53 AM 39.9 °F - 28.0 °F 63% 30.08 in 10.0 mi Calm Calm - N/A   Clear
1:53 AM 39.0 °F - 27.0 °F 62% 30.07 in 10.0 mi Calm Calm - N/A   Clear
2:53 AM 37.9 °F - 27.0 °F 65% 30.08 in 10.0 mi Calm Calm - N/A   Clear
3:53 AM 37.9 °F - 27.0 °F 65% 30.09 in 10.0 mi Calm Calm - N/A   Clear
4:53 AM 36.0 °F - 27.0 °F 70% 30.11 in 10.0 mi Calm Calm - N/A   Clear
5:53 AM 36.0 °F - 28.0 °F 73% 30.12 in 10.0 mi Calm Calm - N/A   Clear
6:53 AM 35.1 °F - 28.0 °F 76% 30.14 in 10.0 mi Calm Calm - N/A   Clear
7:53 AM 35.1 °F - 27.0 °F 72% 30.14 in 10.0 mi Calm Calm - N/A   Clear
8:53 AM 34.0 °F - 28.9 °F 82% 30.16 in 10.0 mi Calm Calm - N/A   Clear
9:53 AM 39.0 °F - 28.9 °F 67% 30.16 in 10.0 mi Calm Calm - N/A   Clear
10:53 AM 43.0 °F - 30.9 °F 62% 30.17 in 10.0 mi Calm Calm - N/A   Clear
11:53 AM 45.0 °F - 30.0 °F 56% 30.16 in 10.0 mi Calm Calm - N/A   Overcast
12:53 PM 46.9 °F - 30.0 °F 52% 30.12 in 10.0 mi Variable 3.5 mph - N/A   Mostly Cloudy
1:53 PM 44.1 °F 42.5 °F 36.0 °F 73% 30.10 in 8.0 mi ESE 3.5 mph - 0.02 in Rain Light Rain
2:53 PM 44.1 °F - 39.0 °F 82% 30.09 in 10.0 mi Calm Calm - 0.00 in Rain Light Rain
3:53 PM 46.9 °F - 37.9 °F 71% 30.07 in 10.0 mi Calm Calm - 0.00 in   Mostly Cloudy
4:53 PM 46.9 °F - 37.9 °F 71% 30.04 in 10.0 mi Variable 3.5 mph - N/A   Overcast
5:53 PM 46.0 °F - 35.1 °F 66% 30.03 in 10.0 mi Calm Calm - N/A   Overcast
6:53 PM 46.0 °F - 35.1 °F 66% 30.03 in 10.0 mi Calm Calm - N/A   Overcast
7:53 PM 43.0 °F 40.3 °F 37.0 °F 80% 30.05 in 10.0 mi Variable 4.6 mph - 0.05 in   Overcast
8:05 PM 42.8 °F 40.1 °F 37.4 °F 81% 30.08 in 7.0 mi Variable 4.6 mph - 0.01 in Rain , Thunderstorm Rain
8:50 PM 41.0 °F - 37.4 °F 87% 30.05 in 10.0 mi Calm Calm - 0.07 in Rain Light Rain
8:53 PM 41.0 °F - 37.9 °F 89% 30.07 in 10.0 mi Calm Calm - 0.07 in   Overcast
9:53 PM 39.9 °F - 39.0 °F 97% 30.08 in 10.0 mi Calm Calm - 0.00 in   Overcast
10:03 PM 39.2 °F - 37.4 °F 93% 30.06 in 10.0 mi Calm Calm - N/A   Overcast
10:38 PM 39.2 °F - 37.4 °F 93% 30.06 in 10.0 mi Calm Calm - N/A   Overcast
10:53 PM 39.9 °F 36.7 °F 37.9 °F 93% 30.06 in 10.0 mi ESE 4.6 mph - 0.00 in Rain Light Rain
11:13 PM 39.2 °F 35.9 °F 39.2 °F 100% 30.03 in 9.0 mi Variable 4.6 mph - 0.00 in   Overcast
11:53 PM 39.9 °F - 39.0 °F 97% 30.06 in 10.0 mi Calm Calm - 0.00 in   Overcast